Weather in Malinovka

Russia / Amur Oblast     49°46′58″N   129°50′17″E
temp.,
°C
wind,
m/s
gust,
m/s
humid.,
%
clouds,
%
prec.,
mm/h
press.,
hPa
HPBL,
m
21 april, wed
wed2100:00+3sw11355 0.0 101710
03:00+1sse22450 0.0 101710
06:00+1sse34480 0.0 101860
09:00+8s45365 0.0 1018334
12:00+15s56270 0.0 1016895
15:00+20ssw46220 0.0 10141495
18:00+19sse36310 0.0 1013103
21:00+13sse49420 0.0 1014124
22 april, thu
thu2200:00+10se411470 0.0 1015150
03:00+11sse615404 0.0 1015281
06:00+11sse716396 0.0 1015325
09:00+16sse9133584 0.0 1014550
12:00+24ssw8112659 0.0 10141579
15:00+25sw7102016 0.0 10132454
18:00+22wsw5102770 0.0 1015333
21:00+16wsw3340100 0.0 101731
23 april, fri
fri2300:00+14wnw3551100 0.0 1018100
03:00+11nnw5862100 0.0 1021402
06:00+8nnw61073100 0.0 1023528
09:00+8n7862100 0.0 1024760
12:00+5nnw7978100 0.4 1026596
15:00+4nnw61077100 0.8 1027841
18:00+8nw693999 0.1 10261680
21:00+6nnw6113089 0.1 1027540
24 april, sat
sat2400:00+3nnw71336100 0.0 1028972
03:00+1nnw613400 0.0 1029709
06:000nnw511460 0.0 1029541
09:00+5nnw69330 0.0 10281298
12:00+9nw811265 0.0 10262213
15:00+11nw9132496 0.0 10222893
18:00+10nw7132780 0.0 10212720
21:00+6nw4103796 0.0 1020209
25 april, sun
sun2500:00+6nw714355 0.0 1020624
03:00+4nnw814475 0.0 1020922
06:00+3nnw715550 0.0 10211387
09:00+5n68290 0.0 10221530
12:00+8nnw79190 0.0 10211935
15:00+10nnw792253 0.0 10192148
18:00+10nnw47285 0.0 10182153
21:00+7w11371 0.0 101910